Погода в Важном

Россия / Карачаево-Черкесская Республика     43°59′28″N   41°56′32″E
темп.,
°C
ветер,
м/с
пор.,
м/с
влажн.,
%
обл.,
%
осадки,
мм/ч
давл.,
гПа
погр.,
м
21 апреля, ср
ср2100:00+9св348596 0.0 1012379
03:00+8всв3482100 0.0 101492
06:00+7ссв348151 0.0 1016205
09:00+7с128498 0.8 1018364
12:00+7с2394100 1.8 1018350
15:00+7с2297100 2.1 1019270
18:00+6ссв2398100 0.1 1020274
21:00+7ссв1198100 0.1 1021209
22 апреля, чт
чт2200:00+7с0197100 0.0 1021162
03:00+7всв1197100 0.0 102041
06:00+7ссв119799 0.4 102165
09:00+9с2190100 1.3 1021458
12:00+10ссв3385100 0.2 1020607
15:00+10с2383100 1.1 1020441
18:00+8св2392100 0.5 1020175
21:00+7сз2397100 1.1 1022184
23 апреля, пт
пт2300:00+6з2394100 3.8 1022235
03:00+6зюз2395100 5.6 1023166
06:00+6ююз359298 0.9 1024298
09:00+9зюз337011 1.0 1023898
12:00+12ссз335671 0.1 10211594
15:00+12с335696 0.2 10211110
18:00+11св346747 0.0 1021412
21:00+7вюв227974 0.0 102018
24 апреля, сб
сб2400:00+7ююз2276100 0.0 101922
03:00+7ю2267100 0.0 101831
06:00+7ю2261100 0.1 101934
09:00+12зсз12495 0.1 1018785
12:00+14с425436 0.0 10181411
15:00+12ссв336498 0.1 1018971
18:00+11всв237190 0.0 1019427
21:00+9св2381100 0.0 1020125
25 апреля, вс
вс2500:00+8св128396 0.0 102049
03:00+7св2288100 0.0 1020101
06:00+8в1290100 0.4 1019104
09:00+9ссв2283100 0.4 1017388
12:00+11с3279100 0.1 1014806
15:00+8ссз2298100 1.4 1015301
18:00+8ссз2299100 0.6 1015194
21:00+7ссв2399100 1.3 1015256